| time (UTC) | temp F | wind direction | speed MPH | gust MPH | rain 1hr in | rain 24hr in | rain mn in | humidity % | barometer mb |
| 20260504220043 | 81 | 278 | 15.0 | 25.0 | 0.00 | 0.00 | 0.00 | 50 | 1002.5 |
| 20260504214541 | 81 | 266 | 15.0 | 26.0 | 0.00 | 0.00 | 0.00 | 49 | 1002.6 |
| 20260504213040 | 81 | 266 | 12.0 | 26.0 | 0.00 | 0.00 | 0.00 | 50 | 1002.8 |
| 20260504211624 | 80 | 277 | 13.0 | 21.0 | 0.00 | 0.00 | 0.00 | 51 | 1002.8 |
| 20260504210046 | 80 | 271 | 14.0 | 25.0 | 0.00 | 0.00 | 0.00 | 52 | 1003.0 |
| 20260504204543 | 79 | 266 | 13.0 | 21.0 | 0.00 | 0.00 | 0.00 | 53 | 1003.1 |
| 20260504203043 | 79 | 266 | 11.0 | 26.0 | 0.00 | 0.00 | 0.00 | 53 | 1003.4 |
| 20260504201540 | 79 | 272 | 15.0 | 29.0 | 0.00 | 0.00 | 0.00 | 52 | 1003.5 |
| 20260504200036 | 78 | 266 | 14.0 | 28.0 | 0.00 | 0.00 | 0.00 | 52 | 1003.5 |
| 20260504194539 | 79 | 266 | 13.0 | 26.0 | 0.00 | 0.00 | 0.00 | 53 | 1003.8 |
| 20260504193044 | 79 | 266 | 13.0 | 23.0 | 0.00 | 0.00 | 0.00 | 52 | 1003.7 |
| 20260504191601 | 79 | 266 | 13.0 | 26.0 | 0.00 | 0.00 | 0.00 | 52 | 1003.8 |
| 20260504190046 | 78 | 279 | 13.0 | 21.0 | 0.00 | 0.00 | 0.00 | 53 | 1004.0 |
| 20260504184547 | 77 | 268 | 14.0 | 28.0 | 0.00 | 0.00 | 0.00 | 52 | 1004.3 |
| 20260504183042 | 77 | 274 | 15.0 | 25.0 | 0.00 | 0.00 | 0.00 | 53 | 1004.4 |
| 20260504181542 | 77 | 266 | 14.0 | 20.0 | 0.00 | 0.00 | 0.00 | 53 | 1004.4 |
| 20260504180042 | 77 | 270 | 11.0 | 18.0 | 0.00 | 0.00 | 0.00 | 54 | 1004.5 |
| 20260504174544 | 76 | 268 | 10.0 | 18.0 | 0.00 | 0.00 | 0.00 | 54 | 1004.5 |
| 20260504173037 | 74 | 283 | 9.0 | 17.0 | 0.00 | 0.00 | 0.00 | 55 | 1004.5 |
| 20260504171544 | 73 | 266 | 6.0 | 10.0 | 0.00 | 0.00 | 0.00 | 56 | 1004.9 |
| 20260504081543 | 64 | 266 | 2.0 | 4.0 | 0.00 | 0.00 | 0.00 | 63 | 1007.8 |
| 20260504044536 | 67 | 266 | 5.0 | 8.0 | 0.00 | 0.00 | 0.00 | 58 | 1008.6 |
| 20260504043047 | 68 | 266 | 4.0 | 7.0 | 0.00 | 0.00 | 0.00 | 57 | 1008.6 |
| 20260504041542 | 68 | 266 | 4.0 | 7.0 | 0.00 | 0.00 | 0.00 | 56 | 1008.8 |
| 20260504040047 | 68 | 266 | 4.0 | 9.0 | 0.00 | 0.00 | 0.00 | 57 | 1009.1 |
| 20260504034541 | 69 | 266 | 4.0 | 9.0 | 0.00 | 0.00 | 0.00 | 56 | 1009.2 |
| 20260504033036 | 69 | 271 | 6.0 | 10.0 | 0.00 | 0.00 | 0.00 | 55 | 1009.2 |
| 20260504031554 | 70 | 277 | 5.0 | 12.0 | 0.00 | 0.00 | 0.00 | 55 | 1009.4 |
| 20260504030044 | 70 | 266 | 7.0 | 11.0 | 0.00 | 0.00 | 0.00 | 55 | 1009.3 |
| 20260504024540 | 70 | 266 | 6.0 | 13.0 | 0.00 | 0.00 | 0.00 | 55 | 1009.3 |
| 20260504023043 | 70 | 266 | 6.0 | 14.0 | 0.00 | 0.00 | 0.00 | 54 | 1009.1 |
| 20260504021540 | 71 | 266 | 6.0 | 11.0 | 0.00 | 0.00 | 0.00 | 53 | 1009.1 |
| 20260504020039 | 71 | 266 | 4.0 | 10.0 | 0.00 | 0.00 | 0.00 | 53 | 1009.2 |
| 20260504014546 | 72 | 266 | 6.0 | 11.0 | 0.00 | 0.00 | 0.00 | 52 | 1009.3 |
| 20260504013046 | 72 | 266 | 5.0 | 10.0 | 0.00 | 0.00 | 0.00 | 51 | 1009.1 |
| 20260504011542 | 73 | 266 | 5.0 | 10.0 | 0.00 | 0.00 | 0.00 | 49 | 1009.2 |
| 20260504010048 | 74 | 273 | 6.0 | 9.0 | 0.00 | 0.00 | 0.00 | 48 | 1008.9 |
| 20260504004541 | 75 | 284 | 7.0 | 12.0 | 0.00 | 0.00 | 0.00 | 47 | 1009.0 |
| 20260504003040 | 76 | 266 | 6.0 | 14.0 | 0.00 | 0.00 | 0.00 | 47 | 1009.2 |
| 20260504001548 | 77 | 269 | 6.0 | 15.0 | 0.00 | 0.00 | 0.00 | 45 | 1009.2 |
| 20260504000036 | 78 | 282 | 7.0 | 13.0 | 0.00 | 0.00 | 0.00 | 45 | 1009.3 |
| 20260503234601 | 78 | 301 | 9.0 | 13.0 | 0.00 | 0.00 | 0.00 | 44 | 1009.5 |
| 20260503233047 | 78 | 293 | 7.0 | 15.0 | 0.00 | 0.00 | 0.00 | 45 | 1009.6 |
| 20260503231539 | 77 | 271 | 9.0 | 15.0 | 0.00 | 0.00 | 0.00 | 44 | 1009.6 |
| 20260503230041 | 77 | 278 | 5.0 | 11.0 | 0.00 | 0.00 | 0.00 | 45 | 1009.7 |
| 20260503224536 | 77 | 297 | 7.0 | 17.0 | 0.00 | 0.00 | 0.00 | 43 | 1009.7 |
| 20260503223043 | 78 | 293 | 8.0 | 16.0 | 0.00 | 0.00 | 0.00 | 41 | 1009.8 |
| 20260503221553 | 78 | 266 | 10.0 | 20.0 | 0.00 | 0.00 | 0.00 | 41 | 1009.8 |